| time (UTC) | temp C | wind direction | speed KPH | gust KPH | rain 1hr cm | rain 24hr cm | rain mn cm | humidity % | barometer mb |
| 20260506124617 | 12 | 338 | 8.0 | 14.5 | 0.00 | 0.00 | 0.00 | ||
| 20260506124117 | 12 | 359 | 3.2 | 6.4 | 0.00 | 0.00 | 0.00 | ||
| 20260506123617 | 12 | 66 | 4.8 | 17.7 | 0.00 | 0.00 | 0.00 | ||
| 20260506123117 | 12 | 27 | 6.4 | 0.0 | 0.00 | 0.00 | 0.00 | ||
| 20260506122117 | 12 | 346 | 11.3 | 12.9 | 0.00 | 0.00 | 0.00 | ||
| 20260506121617 | 12 | 4 | 11.3 | 16.1 | 0.00 | 0.00 | 0.00 | ||
| 20260506121117 | 12 | 14 | 11.3 | 14.5 | 0.00 | 0.00 | 0.00 | ||
| 20260506120617 | 13 | 332 | 9.7 | 16.1 | 0.00 | 0.00 | 0.00 | ||
| 20260506120118 | 13 | 348 | 9.7 | 6.4 | 0.00 | 0.00 | 0.00 | ||
| 20260506115617 | 13 | 332 | 8.0 | 8.0 | 0.00 | 0.00 | 0.00 | ||
| 20260506115117 | 13 | 31 | 4.8 | 6.4 | 0.00 | 0.00 | 0.00 | ||
| 20260506114617 | 13 | 339 | 9.7 | 11.3 | 0.00 | 0.00 | 0.00 | ||
| 20260506114117 | 13 | 336 | 3.2 | 6.4 | 0.00 | 0.00 | 0.00 | ||
| 20260506113617 | 13 | 353 | 8.0 | 14.5 | 0.00 | 0.00 | 0.00 | ||
| 20260506113117 | 13 | 351 | 8.0 | 9.7 | 0.00 | 0.00 | 0.00 | ||
| 20260506112617 | 13 | 21 | 8.0 | 12.9 | 0.00 | 0.00 | 0.00 | ||
| 20260506112117 | 13 | 359 | 6.4 | 8.0 | 0.00 | 0.00 | 0.00 | ||
| 20260506111617 | 13 | 7 | 8.0 | 6.4 | 0.00 | 0.00 | 0.00 | ||
| 20260506111118 | 13 | 61 | 9.7 | 9.7 | 0.00 | 0.00 | 0.00 | ||
| 20260506110617 | 13 | 339 | 6.4 | 11.3 | 0.00 | 0.00 | 0.00 | ||
| 20260506110118 | 13 | 335 | 6.4 | 12.9 | 0.00 | 0.00 | 0.00 | ||
| 20260506105618 | 13 | 344 | 0.0 | 4.8 | 0.00 | 0.00 | 0.00 | ||
| 20260506105117 | 13 | 346 | 8.0 | 4.8 | 0.00 | 0.00 | 0.00 | ||
| 20260506104618 | 13 | 44 | 6.4 | 3.2 | 0.00 | 0.00 | 0.00 | ||
| 20260506104117 | 13 | 7 | 6.4 | 6.4 | 0.00 | 0.00 | 0.00 | ||
| 20260506103618 | 14 | 318 | 11.3 | 12.9 | 0.00 | 0.00 | 0.00 | ||
| 20260506103117 | 14 | 356 | 8.0 | 9.7 | 0.00 | 0.00 | 0.00 | ||
| 20260506102617 | 14 | 332 | 8.0 | 11.3 | 0.00 | 0.00 | 0.00 | ||
| 20260506102117 | 14 | 23 | 4.8 | 11.3 | 0.00 | 0.00 | 0.00 | ||
| 20260506101617 | 14 | 62 | 12.9 | 8.0 | 0.00 | 0.00 | 0.00 | ||
| 20260506101117 | 14 | 356 | 9.7 | 8.0 | 0.00 | 0.00 | 0.00 | ||
| 20260506100617 | 14 | 353 | 6.4 | 11.3 | 0.00 | 0.00 | 0.00 | ||
| 20260506100118 | 14 | 7 | 4.8 | 9.7 | 0.00 | 0.00 | 0.00 | ||
| 20260506095617 | 14 | 342 | 8.0 | 6.4 | 0.00 | 0.00 | 0.00 | ||
| 20260506095117 | 15 | 336 | 8.0 | 6.4 | 0.00 | 0.00 | 0.00 | ||
| 20260506094618 | 14 | 359 | 8.0 | 16.1 | 0.00 | 0.00 | 0.00 | ||
| 20260506094117 | 15 | 328 | 8.0 | 12.9 | 0.00 | 0.00 | 0.00 | ||
| 20260506093617 | 15 | 332 | 9.7 | 12.9 | 0.00 | 0.00 | 0.00 | ||
| 20260506093117 | 15 | 352 | 8.0 | 4.8 | 0.00 | 0.00 | 0.00 | ||
| 20260506092618 | 15 | 359 | 6.4 | 11.3 | 0.00 | 0.00 | 0.00 | ||
| 20260506092118 | 15 | 348 | 4.8 | 6.4 | 0.00 | 0.00 | 0.00 | ||
| 20260506091618 | 15 | 359 | 8.0 | 6.4 | 0.00 | 0.00 | 0.00 | ||
| 20260506091118 | 15 | 52 | 6.4 | 4.8 | 0.00 | 0.00 | 0.00 | ||
| 20260506090618 | 15 | 286 | 8.0 | 11.3 | 0.00 | 0.00 | 0.00 | ||
| 20260506090118 | 15 | 3 | 4.8 | 11.3 | 0.00 | 0.00 | 0.00 | ||
| 20260506085618 | 15 | 327 | 8.0 | 11.3 | 0.00 | 0.00 | 0.00 | ||
| 20260506085118 | 15 | 31 | 8.0 | 11.3 | 0.00 | 0.00 | 0.00 | ||
| 20260506084618 | 15 | 20 | 9.7 | 9.7 | 0.00 | 0.00 | 0.00 | ||
| 20260506084118 | 15 | 339 | 8.0 | 9.7 | 0.00 | 0.00 | 0.00 | ||
| 20260506083618 | 15 | 358 | 4.8 | 4.8 | 0.00 | 0.00 | 0.00 | ||
| 20260506083118 | 15 | 11 | 6.4 | 4.8 | 0.00 | 0.00 | 0.00 | ||
| 20260506082618 | 15 | 359 | 6.4 | 9.7 | 0.00 | 0.00 | 0.00 | ||
| 20260506082118 | 15 | 348 | 6.4 | 6.4 | 0.00 | 0.00 | 0.00 | ||
| 20260506081618 | 16 | 304 | 4.8 | 4.8 | 0.00 | 0.00 | 0.00 | ||
| 20260506081118 | 16 | 328 | 6.4 | 3.2 | 0.00 | 0.00 | 0.00 | ||
| 20260506080618 | 16 | 4 | 3.2 | 11.3 | 0.00 | 0.00 | 0.00 | ||
| 20260506080118 | 16 | 304 | 4.8 | 12.9 | 0.00 | 0.00 | 0.00 | ||
| 20260506073118 | 16 | 341 | 1.6 | 11.3 | 0.00 | 0.00 | 0.00 | ||
| 20260506072618 | 16 | 351 | 4.8 | 6.4 | 0.00 | 0.00 | 0.00 | ||
| 20260506072118 | 16 | 159 | 1.6 | 4.8 | 0.00 | 0.00 | 0.00 | ||
| 20260506071618 | 16 | 21 | 3.2 | 6.4 | 0.00 | 0.00 | 0.00 | ||
| 20260506071118 | 16 | 3 | 0.0 | 0.0 | 0.00 | 0.00 | 0.00 | ||
| 20260506070618 | 16 | 3 | 1.6 | 4.8 | 0.00 | 0.00 | 0.00 | ||
| 20260506070118 | 16 | 15 | 0.0 | 0.0 | 0.00 | 0.00 | 0.00 | ||
| 20260506062118 | 16 | 342 | 4.8 | 6.4 | 0.00 | 0.00 | 0.00 | ||
| 20260506061619 | 16 | 1 | 3.2 | 4.8 | 0.00 | 0.00 | 0.00 | ||
| 20260506061118 | 16 | 25 | 8.0 | 11.3 | 0.00 | 0.00 | 0.00 | ||
| 20260506060618 | 16 | 13 | 4.8 | 8.0 | 0.00 | 0.00 | 0.00 | ||
| 20260506060119 | 16 | 339 | 9.7 | 17.7 | 0.00 | 0.00 | 0.00 | ||
| 20260506051118 | 17 | 359 | 6.4 | 9.7 | 0.00 | 0.00 | 0.00 | ||
| 20260506050618 | 17 | 345 | 6.4 | 4.8 | 0.00 | 0.00 | 0.00 | ||
| 20260506050119 | 17 | 359 | 11.3 | 11.3 | 0.00 | 0.00 | 0.00 | ||
| 20260506045119 | 17 | 4 | 4.8 | 6.4 | 0.00 | 0.00 | 0.00 | ||
| 20260506044618 | 18 | 4 | 8.0 | 6.4 | 0.00 | 0.00 | 0.00 | ||
| 20260506044118 | 17 | 339 | 3.2 | 8.0 | 0.00 | 0.00 | 0.00 | ||
| 20260506043618 | 17 | 358 | 8.0 | 9.7 | 0.00 | 0.00 | 0.00 | ||
| 20260506043118 | 18 | 49 | 6.4 | 9.7 | 0.00 | 0.00 | 0.00 | ||
| 20260506042618 | 18 | 283 | 8.0 | 12.9 | 0.00 | 0.00 | 0.00 | ||
| 20260506042118 | 18 | 24 | 8.0 | 12.9 | 0.00 | 0.00 | 0.00 | ||
| 20260506041619 | 18 | 344 | 6.4 | 6.4 | 0.00 | 0.00 | 0.00 | ||
| 20260506041119 | 18 | 338 | 11.3 | 14.5 | 0.00 | 0.00 | 0.00 | ||
| 20260506040618 | 18 | 349 | 9.7 | 16.1 | 0.00 | 0.00 | 0.00 | ||
| 20260506040119 | 18 | 1 | 8.0 | 9.7 | 0.00 | 0.00 | 0.00 | ||
| 20260506035619 | 18 | 345 | 12.9 | 16.1 | 0.00 | 0.00 | 0.00 | ||
| 20260506035119 | 19 | 349 | 11.3 | 19.3 | 0.00 | 0.00 | 0.00 | ||
| 20260506034619 | 19 | 335 | 11.3 | 11.3 | 0.00 | 0.00 | 0.00 | ||
| 20260506034119 | 19 | 6 | 8.0 | 8.0 | 0.00 | 0.00 | 0.00 | ||
| 20260506033619 | 20 | 359 | 8.0 | 12.9 | 0.00 | 0.00 | 0.00 | ||
| 20260506033119 | 20 | 359 | 4.8 | 8.0 | 0.00 | 0.00 | 0.00 | ||
| 20260506032619 | 20 | 334 | 4.8 | 4.8 | 0.00 | 0.00 | 0.00 | ||
| 20260506032119 | 20 | 356 | 12.9 | 14.5 | 0.00 | 0.00 | 0.00 | ||
| 20260506031619 | 20 | 335 | 11.3 | 11.3 | 0.00 | 0.00 | 0.00 | ||
| 20260506031119 | 20 | 359 | 11.3 | 11.3 | 0.00 | 0.00 | 0.00 | ||
| 20260506030619 | 20 | 325 | 11.3 | 14.5 | 0.00 | 0.00 | 0.00 | ||
| 20260506025619 | 20 | 61 | 11.3 | 17.7 | 0.00 | 0.00 | 0.00 | ||
| 20260506025119 | 21 | 351 | 3.2 | 1.6 | 0.00 | 0.00 | 0.00 | ||
| 20260506024619 | 21 | 141 | 8.0 | 8.0 | 0.00 | 0.00 | 0.00 | ||
| 20260506024119 | 21 | 313 | 12.9 | 20.9 | 0.00 | 0.00 | 0.00 | ||
| 20260506023119 | 21 | 359 | 8.0 | 4.8 | 0.00 | 0.00 | 0.00 | ||
| 20260506022619 | 21 | 339 | 6.4 | 16.1 | 0.00 | 0.00 | 0.00 | ||
| 20260506022119 | 21 | 320 | 9.7 | 24.1 | 0.00 | 0.00 | 0.00 | ||
| 20260506021119 | 21 | 359 | 6.4 | 14.5 | 0.00 | 0.00 | 0.00 | ||
| 20260506020619 | 21 | 311 | 6.4 | 12.9 | 0.00 | 0.00 | 0.00 | ||
| 20260506020119 | 21 | 352 | 11.3 | 16.1 | 0.00 | 0.00 | 0.00 | ||
| 20260506015619 | 21 | 349 | 8.0 | 12.9 | 0.00 | 0.00 | 0.00 | ||
| 20260506015119 | 22 | 322 | 6.4 | 16.1 | 0.00 | 0.00 | 0.00 | ||
| 20260506014619 | 22 | 352 | 11.3 | 11.3 | 0.00 | 0.00 | 0.00 | ||
| 20260506014120 | 22 | 4 | 8.0 | 4.8 | 0.00 | 0.00 | 0.00 | ||
| 20260506013619 | 22 | 359 | 9.7 | 12.9 | 0.00 | 0.00 | 0.00 | ||
| 20260506013119 | 22 | 348 | 8.0 | 11.3 | 0.00 | 0.00 | 0.00 | ||
| 20260506012619 | 22 | 23 | 8.0 | 12.9 | 0.00 | 0.00 | 0.00 | ||
| 20260506011620 | 22 | 348 | 6.4 | 9.7 | 0.00 | 0.00 | 0.00 | ||
| 20260506011120 | 23 | 62 | 0.0 | 0.0 | 0.00 | 0.00 | 0.00 | ||
| 20260506010620 | 23 | 341 | 11.3 | 19.3 | 0.00 | 0.00 | 0.00 | ||
| 20260506010119 | 23 | 325 | 8.0 | 8.0 | 0.00 | 0.00 | 0.00 | ||
| 20260506005619 | 24 | 37 | 8.0 | 3.2 | 0.00 | 0.00 | 0.00 | ||
| 20260506005119 | 24 | 18 | 4.8 | 8.0 | 0.00 | 0.00 | 0.00 | ||
| 20260506004619 | 24 | 32 | 4.8 | 3.2 | 0.00 | 0.00 | 0.00 | ||
| 20260506004119 | 25 | 356 | 6.4 | 8.0 | 0.00 | 0.00 | 0.00 | ||
| 20260506003119 | 25 | 155 | 9.7 | 8.0 | 0.00 | 0.00 | 0.00 | ||
| 20260506002620 | 25 | 359 | 6.4 | 6.4 | 0.00 | 0.00 | 0.00 | ||
| 20260506002119 | 26 | 7 | 8.0 | 6.4 | 0.00 | 0.00 | 0.00 | ||
| 20260506001119 | 26 | 6 | 8.0 | 12.9 | 0.00 | 0.00 | 0.00 | ||
| 20260506000119 | 26 | 348 | 6.4 | 6.4 | 0.00 | 0.00 | 0.00 | ||
| 20260505235619 | 27 | 320 | 6.4 | 11.3 | 0.00 | 0.00 | 0.00 | ||
| 20260505235119 | 27 | 321 | 11.3 | 12.9 | 0.00 | 0.00 | 0.00 | ||
| 20260505234620 | 27 | 18 | 11.3 | 9.7 | 0.00 | 0.00 | 0.00 | ||
| 20260505234120 | 27 | 353 | 11.3 | 9.7 | 0.00 | 0.00 | 0.00 | ||
| 20260505233619 | 28 | 10 | 9.7 | 14.5 | 0.00 | 0.00 | 0.00 | ||
| 20260505233119 | 28 | 356 | 9.7 | 9.7 | 0.00 | 0.00 | 0.00 | ||
| 20260505232620 | 29 | 346 | 8.0 | 11.3 | 0.00 | 0.00 | 0.00 | ||
| 20260505232119 | 30 | 349 | 8.0 | 6.4 | 0.00 | 0.00 | 0.00 | ||
| 20260505231620 | 30 | 28 | 12.9 | 20.9 | 0.00 | 0.00 | 0.00 | ||
| 20260505231119 | 30 | 306 | 11.3 | 16.1 | 0.00 | 0.00 | 0.00 | ||
| 20260505230120 | 31 | 325 | 8.0 | 9.7 | 0.00 | 0.00 | 0.00 | ||
| 20260505225619 | 32 | 322 | 4.8 | 16.1 | 0.00 | 0.00 | 0.00 | ||
| 20260505224620 | 33 | 282 | 4.8 | 4.8 | 0.00 | 0.00 | 0.00 | ||
| 20260505224120 | 33 | 39 | 9.7 | 9.7 | 0.00 | 0.00 | 0.00 | ||
| 20260505223120 | 33 | 327 | 8.0 | 12.9 | 0.00 | 0.00 | 0.00 | ||
| 20260505222620 | 33 | 359 | 9.7 | 11.3 | 0.00 | 0.00 | 0.00 | ||
| 20260505222120 | 34 | 336 | 4.8 | 4.8 | 0.00 | 0.00 | 0.00 | ||
| 20260505221620 | 35 | 17 | 8.0 | 8.0 | 0.00 | 0.00 | 0.00 | ||
| 20260505221120 | 35 | 279 | 6.4 | 11.3 | 0.00 | 0.00 | 0.00 | ||
| 20260505220620 | 35 | 358 | 4.8 | 6.4 | 0.00 | 0.00 | 0.00 | ||
| 20260505215620 | 35 | 272 | 3.2 | 11.3 | 0.00 | 0.00 | 0.00 | ||
| 20260505215120 | 36 | 296 | 1.6 | 3.2 | 0.00 | 0.00 | 0.00 | ||
| 20260505214120 | 35 | 244 | 4.8 | 6.4 | 0.00 | 0.00 | 0.00 | ||
| 20260505213620 | 35 | 242 | 0.0 | 11.3 | 0.00 | 0.00 | 0.00 | ||
| 20260505213121 | 35 | 201 | 4.8 | 9.7 | 0.00 | 0.00 | 0.00 | ||
| 20260505212620 | 35 | 186 | 0.0 | 0.0 | 0.00 | 0.00 | 0.00 | ||
| 20260505211620 | 35 | 331 | 3.2 | 4.8 | 0.00 | 0.00 | 0.00 | ||
| 20260505210620 | 35 | 215 | 6.4 | 6.4 | 0.00 | 0.00 | 0.00 | ||
| 20260505205621 | 35 | 255 | 8.0 | 6.4 | 0.00 | 0.00 | 0.00 | ||
| 20260505205120 | 34 | 272 | 8.0 | 11.3 | 0.00 | 0.00 | 0.00 | ||
| 20260505202121 | 33 | 245 | 9.7 | 14.5 | 0.00 | 0.00 | 0.00 | ||
| 20260505201121 | 34 | 197 | 9.7 | 19.3 | 0.00 | 0.00 | 0.00 | ||
| 20260505195120 | 34 | 215 | 8.0 | 6.4 | 0.00 | 0.00 | 0.00 | ||
| 20260505194621 | 34 | 170 | 8.0 | 12.9 | 0.00 | 0.00 | 0.00 | ||
| 20260505194121 | 34 | 245 | 11.3 | 12.9 | 0.00 | 0.00 | 0.00 | ||
| 20260505193621 | 34 | 217 | 6.4 | 14.5 | 0.00 | 0.00 | 0.00 | ||
| 20260505193120 | 34 | 232 | 4.8 | 6.4 | 0.00 | 0.00 | 0.00 | ||
| 20260505192620 | 34 | 206 | 8.0 | 16.1 | 0.00 | 0.00 | 0.00 | ||
| 20260505192121 | 33 | 229 | 9.7 | 12.9 | 0.00 | 0.00 | 0.00 | ||
| 20260505191621 | 33 | 260 | 8.0 | 9.7 | 0.00 | 0.00 | 0.00 | ||
| 20260505191120 | 33 | 180 | 9.7 | 12.9 | 0.00 | 0.00 | 0.00 | ||
| 20260505190620 | 32 | 246 | 11.3 | 9.7 | 0.00 | 0.00 | 0.00 | ||
| 20260505190121 | 33 | 293 | 4.8 | 9.7 | 0.00 | 0.00 | 0.00 | ||
| 20260505185620 | 32 | 239 | 9.7 | 14.5 | 0.00 | 0.00 | 0.00 | ||
| 20260505185120 | 32 | 173 | 6.4 | 11.3 | 0.00 | 0.00 | 0.00 | ||
| 20260505184621 | 32 | 306 | 12.9 | 14.5 | 0.00 | 0.00 | 0.00 | ||
| 20260505184120 | 32 | 260 | 8.0 | 9.7 | 0.00 | 0.00 | 0.00 | ||
| 20260505183620 | 32 | 276 | 11.3 | 11.3 | 0.00 | 0.00 | 0.00 | ||
| 20260505182621 | 31 | 229 | 9.7 | 11.3 | 0.00 | 0.00 | 0.00 | ||
| 20260505182121 | 30 | 224 | 8.0 | 12.9 | 0.00 | 0.00 | 0.00 | ||
| 20260505181121 | 30 | 255 | 11.3 | 17.7 | 0.00 | 0.00 | 0.00 | ||
| 20260505180621 | 30 | 266 | 8.0 | 11.3 | 0.00 | 0.00 | 0.00 | ||
| 20260505175121 | 30 | 263 | 12.9 | 9.7 | 0.00 | 0.00 | 0.00 | ||
| 20260505174621 | 30 | 183 | 8.0 | 14.5 | 0.00 | 0.00 | 0.00 | ||
| 20260505173621 | 30 | 221 | 8.0 | 17.7 | 0.00 | 0.00 | 0.00 | ||
| 20260505172621 | 29 | 227 | 12.9 | 14.5 | 0.00 | 0.00 | 0.00 | ||
| 20260505171621 | 30 | 242 | 9.7 | 12.9 | 0.00 | 0.00 | 0.00 | ||
| 20260505170621 | 29 | 166 | 9.7 | 12.9 | 0.00 | 0.00 | 0.00 | ||
| 20260505165622 | 28 | 244 | 9.7 | 8.0 | 0.00 | 0.00 | 0.00 | ||
| 20260505165121 | 29 | 228 | 9.7 | 17.7 | 0.00 | 0.00 | 0.00 | ||
| 20260505164621 | 30 | 228 | 11.3 | 16.1 | 0.00 | 0.00 | 0.00 | ||
| 20260505164121 | 28 | 218 | 8.0 | 8.0 | 0.00 | 0.00 | 0.00 | ||
| 20260505163621 | 29 | 213 | 9.7 | 22.5 | 0.00 | 0.00 | 0.00 | ||
| 20260505163121 | 28 | 245 | 8.0 | 14.5 | 0.00 | 0.00 | 0.00 | ||
| 20260505162621 | 28 | 232 | 9.7 | 9.7 | 0.00 | 0.00 | 0.00 | ||
| 20260505162121 | 28 | 245 | 9.7 | 24.1 | 0.00 | 0.00 | 0.00 | ||
| 20260505161621 | 28 | 235 | 8.0 | 17.7 | 0.00 | 0.00 | 0.00 | ||
| 20260505160621 | 26 | 177 | 12.9 | 11.3 | 0.00 | 0.00 | 0.00 | ||
| 20260505160121 | 27 | 217 | 9.7 | 12.9 | 0.00 | 0.00 | 0.00 | ||
| 20260505153122 | 26 | 237 | 6.4 | 9.7 | 0.00 | 0.00 | 0.00 | ||
| 20260505152621 | 26 | 222 | 11.3 | 12.9 | 0.00 | 0.00 | 0.00 | ||
| 20260505152122 | 25 | 232 | 9.7 | 9.7 | 0.00 | 0.00 | 0.00 | ||
| 20260505151621 | 25 | 255 | 8.0 | 16.1 | 0.00 | 0.00 | 0.00 | ||
| 20260505151121 | 25 | 297 | 12.9 | 8.0 | 0.00 | 0.00 | 0.00 | ||
| 20260505150621 | 25 | 232 | 9.7 | 14.5 | 0.00 | 0.00 | 0.00 | ||
| 20260505150121 | 25 | 235 | 9.7 | 16.1 | 0.00 | 0.00 | 0.00 | ||
| 20260505140621 | 23 | 231 | 14.5 | 22.5 | 0.00 | 0.00 | 0.00 | ||
| 20260505140121 | 23 | 249 | 6.4 | 4.8 | 0.00 | 0.00 | 0.00 | ||
| 20260505130122 | 21 | 8 | 6.4 | 4.8 | 0.00 | 0.00 | 0.00 |